Location: Unspecified
(0.0000°N, 0.0000°E)
Time: 06:07:16
(UTC+00:00)

Explorer 7 - Pass Details

Date: 04 October 2020
Orbit: 484 x 678 km, 50.3° (Epoch: 28 October)

Event Time Altitude Azimuth Distance (km) Brightness Sun altitude
Rises 20:08:25 0° 234° (SW) 2,566 11.0 -34.8°
Reaches altitude 10° 20:10:44 10° 245° (WSW) 1,700 10.0 -35.4°
Enters shadow 20:10:44 10° 245° (WSW) 1,697 10.0 -35.4°
Maximum altitude 20:14:08 30° 308° (NW) 929 - -36.3°
Drops below altitude 10° 20:17:42 10° 10° (N) 1,774 - -37.2°
Sets 20:20:10 0° 21° (NNE) 2,698 - -37.8°
